Location: Del Amo
(33.8464°N, 118.2104°W)
Time: 08:40:03
(UTC+00:00)

Vanguard 1 Rocket - Pass Details

Date: 16 September 2024
Orbit: 650 x 4218 km, 34.3° (Epoch: 09 October)

Event Time Altitude Azimuth Distance (km) Brightness Sun altitude
Rises 18:39:24 0° 289° (WNW) 8,183 12.0 54.6°
Reaches altitude 10° 18:45:39 10° 282° (WNW) 7,346 11.9 55.2°
Maximum altitude 19:07:13 36° 227° (SW) 5,213 12.0 57.0°
Drops below altitude 10° 19:24:23 10° 168° (SSE) 5,816 12.2 57.9°
Sets 19:28:42 0° 159° (SSE) 6,379 12.2 58.1°
